Time,TemperatureF,DewpointF,PressureIn,WindDirection,WindDirectionDegrees,WindSpeedMPH,WindSpeedGustMPH,Humidity,HourlyPrecipIn,Conditions,Clouds,dailyrainin,SolarRadiationWatts/m^2,SoftwareType,DateUTC
2013-07-16 00:02:00,74.0,71.2,30.18,ESE,112,0.0,0.0,91,0.00,,,0.00,0.00,VWS V14.01,2013-07-16 04:02:00,
2013-07-16 00:03:00,74.0,71.2,30.18,ESE,112,0.0,0.0,91,0.00,,,0.00,0.00,VWS V14.01,2013-07-16 04:03:00,
2013-07-16 00:08:00,73.9,71.1,30.18,ESE,112,0.0,0.0,91,0.00,,,0.00,0.00,VWS V14.01,2013-07-16 04:08:00,
2013-07-16 00:13:00,73.7,71.2,30.18,ESE,112,0.0,0.0,92,0.00,,,0.00,0.00,VWS V14.01,2013-07-16 04:13:00,
2013-07-16 00:18:00,73.5,71.0,30.18,ESE,112,0.0,0.0,92,0.00,,,0.00,0.00,VWS V14.01,2013-07-16 04:18:00,
2013-07-16 00:23:00,73.5,71.0,30.18,ESE,112,0.0,0.0,92,0.00,,,0.00,0.00,VWS V14.01,2013-07-16 04:23:00,
2013-07-16 00:28:00,73.5,71.0,30.18,ESE,112,0.0,0.0,92,0.00,,,0.00,0.00,VWS V14.01,2013-07-16 04:28:00,
2013-07-16 00:33:00,73.3,70.8,30.18,ESE,112,0.0,0.0,92,0.00,,,0.00,0.00,VWS V14.01,2013-07-16 04:33:00,
2013-07-16 00:38:00,73.3,70.8,30.18,ESE,112,0.0,0.0,92,0.00,,,0.00,0.00,VWS V14.01,2013-07-16 04:38:00,
2013-07-16 00:42:00,73.2,70.7,30.18,ESE,112,0.0,0.0,92,0.00,,,0.00,0.00,VWS V14.01,2013-07-16 04:42:00,
2013-07-16 00:47:00,73.2,71.1,30.18,ESE,112,0.0,0.0,93,0.00,,,0.00,0.00,VWS V14.01,2013-07-16 04:47:00,
2013-07-16 00:52:00,73.0,70.9,30.18,ESE,112,0.0,0.0,93,0.00,,,0.00,0.00,VWS V14.01,2013-07-16 04:52:00,
2013-07-16 00:57:00,72.8,70.7,30.18,ESE,112,0.0,0.0,93,0.00,,,0.00,0.00,VWS V14.01,2013-07-16 04:57:00,
2013-07-16 01:02:00,72.8,70.7,30.18,ESE,112,0.0,0.0,93,0.00,,,0.00,0.00,VWS V14.01,2013-07-16 05:02:00,
2013-07-16 01:07:00,72.7,70.6,30.18,ESE,112,0.0,0.0,93,0.00,,,0.00,0.00,VWS V14.01,2013-07-16 05:07:00,
2013-07-16 01:12:00,72.7,70.6,30.18,ESE,112,0.0,0.0,93,0.00,,,0.00,0.00,VWS V14.01,2013-07-16 05:12:00,
2013-07-16 01:17:00,72.7,70.6,30.18,ESE,112,0.0,0.0,93,0.00,,,0.00,0.00,VWS V14.01,2013-07-16 05:17:00,
2013-07-16 01:22:00,72.5,70.4,30.18,ESE,112,0.0,0.0,93,0.00,,,0.00,0.00,VWS V14.01,2013-07-16 05:22:00,
2013-07-16 01:27:00,72.5,70.4,30.18,ESE,112,0.0,0.0,93,0.00,,,0.00,0.00,VWS V14.01,2013-07-16 05:27:00,
2013-07-16 01:32:00,72.3,70.5,30.18,ESE,112,0.0,0.0,94,0.00,,,0.00,0.00,VWS V14.01,2013-07-16 05:32:00,
2013-07-16 01:37:00,72.3,70.2,30.18,ESE,112,0.0,0.0,93,0.00,,,0.00,0.00,VWS V14.01,2013-07-16 05:37:00,
2013-07-16 01:42:00,72.1,70.3,30.18,ESE,112,0.0,0.0,94,0.00,,,0.00,0.00,VWS V14.01,2013-07-16 05:42:00,
2013-07-16 01:47:00,72.1,70.3,30.18,SE,141,4.0,4.0,94,0.00,,,0.00,0.00,VWS V14.01,2013-07-16 05:47:00,
2013-07-16 01:52:00,72.5,70.7,30.18,SSE,160,0.0,0.0,94,0.00,,,0.00,0.00,VWS V14.01,2013-07-16 05:52:00,
2013-07-16 01:57:00,72.7,70.9,30.18,SSE,160,0.0,0.0,94,0.00,,,0.00,0.00,VWS V14.01,2013-07-16 05:57:00,
2013-07-16 02:02:00,72.7,70.9,30.18,SSE,160,0.0,0.0,94,0.00,,,0.00,0.00,VWS V14.01,2013-07-16 06:02:00,
2013-07-16 02:07:00,72.5,70.7,30.18,SSE,160,0.0,0.0,94,0.00,,,0.00,0.00,VWS V14.01,2013-07-16 06:07:00,
2013-07-16 02:12:00,72.5,70.7,30.18,SSE,160,0.0,0.0,94,0.00,,,0.00,0.00,VWS V14.01,2013-07-16 06:12:00,
2013-07-16 02:17:00,72.3,70.5,30.18,SSE,160,0.0,0.0,94,0.00,,,0.00,0.00,VWS V14.01,2013-07-16 06:17:00,
2013-07-16 02:22:00,72.1,70.3,30.18,SSE,160,0.0,0.0,94,0.00,,,0.00,0.00,VWS V14.01,2013-07-16 06:22:00,
2013-07-16 02:27:00,72.1,70.3,30.18,SSE,160,0.0,0.0,94,0.00,,,0.00,0.00,VWS V14.01,2013-07-16 06:27:00,
2013-07-16 02:32:00,72.0,70.2,30.18,SSE,160,0.0,0.0,94,0.00,,,0.00,0.00,VWS V14.01,2013-07-16 06:32:00,
2013-07-16 02:37:00,72.0,70.5,30.18,SSE,160,0.0,0.0,95,0.00,,,0.00,0.00,VWS V14.01,2013-07-16 06:37:00,
2013-07-16 02:42:00,71.8,70.3,30.18,SSE,160,0.0,0.0,95,0.00,,,0.00,0.00,VWS V14.01,2013-07-16 06:42:00,
2013-07-16 02:47:00,71.8,70.3,30.18,SSE,160,0.0,0.0,95,0.00,,,0.00,0.00,VWS V14.01,2013-07-16 06:47:00,
2013-07-16 02:52:00,71.6,70.1,30.18,SSE,160,0.0,0.0,95,0.00,,,0.00,0.00,VWS V14.01,2013-07-16 06:52:00,
2013-07-16 02:57:00,71.6,70.1,30.18,SSE,160,0.0,0.0,95,0.00,,,0.00,0.00,VWS V14.01,2013-07-16 06:57:00,
2013-07-16 03:02:00,71.5,70.0,30.18,SSE,160,0.0,0.0,95,0.00,,,0.00,0.00,VWS V14.01,2013-07-16 07:02:00,
2013-07-16 03:07:00,71.5,70.0,30.18,SSE,160,0.0,0.0,95,0.00,,,0.00,0.00,VWS V14.01,2013-07-16 07:07:00,
2013-07-16 03:12:00,71.5,70.0,30.18,SSE,160,0.0,0.0,95,0.00,,,0.00,0.00,VWS V14.01,2013-07-16 07:12:00,
2013-07-16 03:17:00,71.3,69.8,30.18,SSE,160,0.0,0.0,95,0.00,,,0.00,0.00,VWS V14.01,2013-07-16 07:17:00,
2013-07-16 03:22:00,71.3,69.8,30.18,SSE,160,0.0,0.0,95,0.00,,,0.00,0.00,VWS V14.01,2013-07-16 07:22:00,
2013-07-16 03:27:00,71.3,69.8,30.18,SSE,160,0.0,0.0,95,0.00,,,0.00,0.00,VWS V14.01,2013-07-16 07:27:00,
2013-07-16 03:32:00,71.3,69.8,30.17,SSE,160,0.0,0.0,95,0.00,,,0.00,0.00,VWS V14.01,2013-07-16 07:32:00,
2013-07-16 03:37:00,71.3,69.8,30.17,SSE,160,0.0,0.0,95,0.00,,,0.00,0.00,VWS V14.01,2013-07-16 07:37:00,
2013-07-16 03:42:00,71.1,69.6,30.17,SSE,160,0.0,0.0,95,0.00,,,0.00,0.00,VWS V14.01,2013-07-16 07:42:00,
2013-07-16 03:47:00,71.1,69.6,30.17,SSE,160,0.0,0.0,95,0.00,,,0.00,0.00,VWS V14.01,2013-07-16 07:47:00,
2013-07-16 03:52:00,70.9,69.4,30.17,SSE,160,0.0,0.0,95,0.00,,,0.00,0.00,VWS V14.01,2013-07-16 07:52:00,
2013-07-16 03:57:00,70.9,69.4,30.17,SSE,160,0.0,0.0,95,0.00,,,0.00,0.00,VWS V14.01,2013-07-16 07:57:00,
2013-07-16 04:02:00,70.9,69.4,30.17,SSE,160,0.0,0.0,95,0.00,,,0.00,0.00,VWS V14.01,2013-07-16 08:02:00,
2013-07-16 04:07:00,70.9,69.4,30.17,SSE,160,0.0,0.0,95,0.00,,,0.00,0.00,VWS V14.01,2013-07-16 08:07:00,
2013-07-16 04:12:00,70.8,69.3,30.17,SSE,160,0.0,0.0,95,0.00,,,0.00,0.00,VWS V14.01,2013-07-16 08:12:00,
2013-07-16 04:17:00,70.8,69.3,30.17,SSE,160,0.0,0.0,95,0.00,,,0.00,0.00,VWS V14.01,2013-07-16 08:17:00,
2013-07-16 04:22:00,70.8,69.3,30.17,SSE,160,0.0,0.0,95,0.00,,,0.00,0.00,VWS V14.01,2013-07-16 08:22:00,
2013-07-16 04:27:00,70.8,69.3,30.17,SSE,160,0.0,0.0,95,0.00,,,0.00,0.00,VWS V14.01,2013-07-16 08:27:00,
2013-07-16 04:32:00,70.6,69.1,30.17,SSE,160,0.0,0.0,95,0.00,,,0.00,0.00,VWS V14.01,2013-07-16 08:32:00,
2013-07-16 04:37:00,70.6,69.1,30.17,SSE,160,0.0,0.0,95,0.00,,,0.00,0.00,VWS V14.01,2013-07-16 08:37:00,
2013-07-16 04:42:00,70.6,69.1,30.17,SSE,160,0.0,0.0,95,0.00,,,0.00,0.00,VWS V14.01,2013-07-16 08:42:00,
2013-07-16 04:47:00,70.6,69.1,30.17,SSE,160,0.0,0.0,95,0.00,,,0.00,0.00,VWS V14.01,2013-07-16 08:47:00,
2013-07-16 04:52:00,70.6,69.1,30.17,SSE,160,0.0,0.0,95,0.00,,,0.00,0.00,VWS V14.01,2013-07-16 08:52:00,
2013-07-16 04:57:00,70.4,68.9,30.17,SSE,160,0.0,0.0,95,0.00,,,0.00,0.00,VWS V14.01,2013-07-16 08:57:00,
2013-07-16 05:02:00,70.4,68.9,30.17,SSE,160,0.0,0.0,95,0.00,,,0.00,0.00,VWS V14.01,2013-07-16 09:02:00,
2013-07-16 05:07:00,70.3,68.8,30.17,SSE,160,0.0,0.0,95,0.00,,,0.00,0.00,VWS V14.01,2013-07-16 09:07:00,
2013-07-16 05:12:00,70.1,68.6,30.17,SSE,160,0.0,0.0,95,0.00,,,0.00,0.00,VWS V14.01,2013-07-16 09:12:00,
2013-07-16 05:17:00,70.1,68.6,30.17,SSE,160,0.0,0.0,95,0.00,,,0.00,0.00,VWS V14.01,2013-07-16 09:17:00,
2013-07-16 05:22:00,69.9,68.4,30.17,SSE,160,0.0,0.0,95,0.00,,,0.00,0.00,VWS V14.01,2013-07-16 09:22:00,
2013-07-16 05:27:00,69.9,68.4,30.17,SSE,160,0.0,0.0,95,0.00,,,0.00,0.00,VWS V14.01,2013-07-16 09:27:00,
2013-07-16 05:32:00,69.9,68.7,30.17,SSE,160,0.0,0.0,96,0.00,,,0.00,0.00,VWS V14.01,2013-07-16 09:32:00,
2013-07-16 05:37:00,70.1,68.9,30.17,SSE,160,0.0,0.0,96,0.00,,,0.00,0.00,VWS V14.01,2013-07-16 09:37:00,
2013-07-16 05:42:00,70.3,69.1,30.17,SSE,160,0.0,0.0,96,0.00,,,0.00,0.00,VWS V14.01,2013-07-16 09:42:00,
2013-07-16 05:47:00,70.4,69.2,30.17,SSE,160,0.0,0.0,96,0.00,,,0.00,0.00,VWS V14.01,2013-07-16 09:47:00,
2013-07-16 05:52:00,70.4,69.2,30.17,SSE,160,0.0,0.0,96,0.00,,,0.00,0.00,VWS V14.01,2013-07-16 09:52:00,
2013-07-16 05:57:00,70.6,69.4,30.17,SSE,160,0.0,0.0,96,0.00,,,0.00,0.00,VWS V14.01,2013-07-16 09:57:00,
2013-07-16 06:02:00,70.4,69.2,30.18,SSE,160,0.0,0.0,96,0.00,,,0.00,0.00,VWS V14.01,2013-07-16 10:02:00,
2013-07-16 06:07:00,70.4,69.2,30.18,SSE,160,0.0,0.0,96,0.00,,,0.00,0.00,VWS V14.01,2013-07-16 10:07:00,
2013-07-16 06:12:00,70.3,69.1,30.18,SSE,160,0.0,0.0,96,0.00,,,0.00,0.00,VWS V14.01,2013-07-16 10:12:00,
2013-07-16 06:17:00,70.1,68.9,30.18,SSE,160,0.0,0.0,96,0.00,,,0.00,5.00,VWS V14.01,2013-07-16 10:17:00,
2013-07-16 06:22:00,70.1,68.9,30.18,SSE,160,0.0,0.0,96,0.00,,,0.00,7.00,VWS V14.01,2013-07-16 10:22:00,
2013-07-16 06:27:00,69.9,68.7,30.18,SSE,160,0.0,0.0,96,0.00,,,0.00,9.00,VWS V14.01,2013-07-16 10:27:00,
2013-07-16 06:32:00,69.9,68.7,30.18,SSE,160,0.0,0.0,96,0.00,,,0.00,11.00,VWS V14.01,2013-07-16 10:32:00,
2013-07-16 06:37:00,69.9,68.7,30.18,SSE,160,0.0,0.0,96,0.00,,,0.00,12.00,VWS V14.01,2013-07-16 10:37:00,
2013-07-16 06:42:00,69.9,68.7,30.18,SSE,160,0.0,0.0,96,0.00,,,0.00,16.00,VWS V14.01,2013-07-16 10:42:00,
2013-07-16 06:47:00,69.9,68.7,30.18,SSE,160,0.0,0.0,96,0.00,,,0.00,16.00,VWS V14.01,2013-07-16 10:47:00,
2013-07-16 06:52:00,70.1,68.9,30.18,SSE,160,0.0,0.0,96,0.00,,,0.00,18.00,VWS V14.01,2013-07-16 10:52:00,
2013-07-16 06:57:00,70.3,69.1,30.18,SSE,160,0.0,0.0,96,0.00,,,0.00,19.00,VWS V14.01,2013-07-16 10:57:00,
2013-07-16 07:02:00,70.3,69.1,30.18,SSE,160,0.0,0.0,96,0.00,,,0.00,21.00,VWS V14.01,2013-07-16 11:02:00,
2013-07-16 07:07:00,70.4,69.2,30.18,SSE,160,0.0,0.0,96,0.00,,,0.00,23.00,VWS V14.01,2013-07-16 11:07:00,
2013-07-16 07:12:00,70.6,69.4,30.18,SSE,160,0.0,0.0,96,0.00,,,0.00,25.00,VWS V14.01,2013-07-16 11:12:00,
2013-07-16 07:17:00,70.8,69.6,30.18,SSE,160,0.0,0.0,96,0.00,,,0.00,26.00,VWS V14.01,2013-07-16 11:17:00,
2013-07-16 07:22:00,70.9,69.7,30.18,SSE,160,0.0,0.0,96,0.00,,,0.00,28.00,VWS V14.01,2013-07-16 11:22:00,
2013-07-16 07:27:00,71.3,70.1,30.18,SSE,160,0.0,0.0,96,0.00,,,0.00,33.00,VWS V14.01,2013-07-16 11:27:00,
2013-07-16 07:32:00,71.6,70.4,30.19,SSE,160,0.0,0.0,96,0.00,,,0.00,32.00,VWS V14.01,2013-07-16 11:32:00,
2013-07-16 07:37:00,72.0,70.8,30.19,SSE,160,0.0,0.0,96,0.00,,,0.00,33.00,VWS V14.01,2013-07-16 11:37:00,
2013-07-16 07:42:00,72.3,71.1,30.19,SSE,160,0.0,0.0,96,0.00,,,0.00,35.00,VWS V14.01,2013-07-16 11:42:00,
2013-07-16 07:47:00,72.5,71.3,30.19,SSE,160,0.0,0.0,96,0.00,,,0.00,37.00,VWS V14.01,2013-07-16 11:47:00,
2013-07-16 07:52:00,72.7,71.5,30.19,SSE,160,0.0,0.0,96,0.00,,,0.00,39.00,VWS V14.01,2013-07-16 11:52:00,
2013-07-16 07:57:00,73.0,71.8,30.19,SSE,160,0.0,0.0,96,0.00,,,0.00,40.00,VWS V14.01,2013-07-16 11:57:00,
2013-07-16 08:02:00,73.2,72.0,30.19,SSE,160,0.0,0.0,96,0.00,,,0.00,40.00,VWS V14.01,2013-07-16 12:02:00,
2013-07-16 08:07:00,73.7,72.5,30.19,SSE,160,0.0,0.0,96,0.00,,,0.00,42.00,VWS V14.01,2013-07-16 12:07:00,
2013-07-16 08:12:00,74.0,72.8,30.19,SSE,160,0.0,0.0,96,0.00,,,0.00,42.00,VWS V14.01,2013-07-16 12:12:00,
2013-07-16 08:17:00,74.2,73.0,30.20,SSE,160,0.0,0.0,96,0.00,,,0.00,44.00,VWS V14.01,2013-07-16 12:17:00,
2013-07-16 08:22:00,74.6,73.4,30.20,SSE,160,0.0,0.0,96,0.00,,,0.00,44.00,VWS V14.01,2013-07-16 12:22:00,
2013-07-16 08:27:00,74.7,73.5,30.20,SSE,160,0.0,0.0,96,0.00,,,0.00,46.00,VWS V14.01,2013-07-16 12:27:00,
2013-07-16 08:32:00,75.1,73.9,30.20,SSE,160,0.0,0.0,96,0.00,,,0.00,47.00,VWS V14.01,2013-07-16 12:32:00,
2013-07-16 08:37:00,75.4,74.2,30.20,SSE,160,0.0,0.0,96,0.00,,,0.00,47.00,VWS V14.01,2013-07-16 12:37:00,
2013-07-16 08:42:00,75.8,74.6,30.20,SSE,160,0.0,0.0,96,0.00,,,0.00,49.00,VWS V14.01,2013-07-16 12:42:00,
2013-07-16 08:47:00,76.1,74.9,30.20,SSE,160,0.0,0.0,96,0.00,,,0.00,51.00,VWS V14.01,2013-07-16 12:47:00,
2013-07-16 08:52:00,76.3,74.8,30.20,South,170,0.0,0.0,95,0.00,,,0.00,381.00,VWS V14.01,2013-07-16 12:52:00,
2013-07-16 08:57:00,76.7,74.2,30.20,South,171,0.0,1.0,92,0.00,,,0.00,397.00,VWS V14.01,2013-07-16 12:57:00,
2013-07-16 09:02:00,77.4,73.9,30.19,North,11,0.0,0.0,89,0.00,,,0.00,410.00,VWS V14.01,2013-07-16 13:02:00,
2013-07-16 09:07:00,78.3,73.1,30.19,NW,311,0.0,2.0,84,0.00,,,0.00,427.00,VWS V14.01,2013-07-16 13:07:00,
2013-07-16 09:12:00,79.0,72.7,30.19,NW,311,0.0,0.0,81,0.00,,,0.00,452.00,VWS V14.01,2013-07-16 13:12:00,
2013-07-16 09:17:00,80.1,73.0,30.20,NW,326,0.0,0.0,79,0.00,,,0.00,482.00,VWS V14.01,2013-07-16 13:17:00,
2013-07-16 09:22:00,80.9,72.2,30.20,NW,326,0.0,0.0,75,0.00,,,0.00,504.00,VWS V14.01,2013-07-16 13:22:00,
2013-07-16 09:27:00,81.8,71.9,30.20,WNW,282,0.0,3.0,72,0.00,,,0.00,520.00,VWS V14.01,2013-07-16 13:27:00,
2013-07-16 09:32:00,82.6,71.4,30.19,West,281,0.0,0.0,69,0.00,,,0.00,538.00,VWS V14.01,2013-07-16 13:32:00,
2013-07-16 09:37:00,83.4,71.7,30.19,WNW,288,0.0,1.0,68,0.00,,,0.00,552.00,VWS V14.01,2013-07-16 13:37:00,
2013-07-16 09:42:00,84.1,72.0,30.19,WNW,302,3.0,4.0,67,0.00,,,0.00,571.00,VWS V14.01,2013-07-16 13:42:00,
2013-07-16 09:47:00,84.7,72.1,30.19,NNW,348,0.0,1.0,66,0.00,,,0.00,596.00,VWS V14.01,2013-07-16 13:47:00,
2013-07-16 09:52:00,85.5,72.4,30.19,NNW,344,0.0,0.0,65,0.00,,,0.00,568.00,VWS V14.01,2013-07-16 13:52:00,
2013-07-16 09:57:00,86.1,72.0,30.19,WNW,291,4.0,5.0,63,0.00,,,0.00,626.00,VWS V14.01,2013-07-16 13:57:00,
2013-07-16 10:02:00,86.7,71.2,30.19,WNW,300,0.0,6.0,60,0.00,,,0.00,635.00,VWS V14.01,2013-07-16 14:02:00,
2013-07-16 10:07:00,87.0,71.9,30.19,WNW,295,0.0,1.0,61,0.00,,,0.00,624.00,VWS V14.01,2013-07-16 14:07:00,
2013-07-16 10:12:00,87.4,71.8,30.19,NNW,338,0.0,5.0,60,0.00,,,0.00,628.00,VWS V14.01,2013-07-16 14:12:00,
2013-07-16 10:17:00,87.8,72.2,30.19,WNW,288,1.0,6.0,60,0.00,,,0.00,649.00,VWS V14.01,2013-07-16 14:17:00,
2013-07-16 10:22:00,88.0,70.9,30.19,West,278,0.0,2.0,57,0.00,,,0.00,633.00,VWS V14.01,2013-07-16 14:22:00,
2013-07-16 10:27:00,87.8,71.2,30.19,West,278,1.0,4.0,58,0.00,,,0.00,645.00,VWS V14.01,2013-07-16 14:27:00,
2013-07-16 10:32:00,88.0,70.9,30.18,West,281,0.0,5.0,57,0.00,,,0.00,652.00,VWS V14.01,2013-07-16 14:32:00,
2013-07-16 10:37:00,88.2,70.5,30.18,North,358,7.0,7.0,56,0.00,,,0.00,698.00,VWS V14.01,2013-07-16 14:37:00,
2013-07-16 10:42:00,88.6,70.4,30.18,NNW,342,7.0,7.0,55,0.00,,,0.00,666.00,VWS V14.01,2013-07-16 14:42:00,
2013-07-16 10:47:00,88.8,71.1,30.18,NW,304,0.0,0.0,56,0.00,,,0.00,700.00,VWS V14.01,2013-07-16 14:47:00,
2013-07-16 10:52:00,89.0,71.3,30.18,NNW,338,0.0,4.0,56,0.00,,,0.00,768.00,VWS V14.01,2013-07-16 14:52:00,
2013-07-16 10:57:00,89.7,71.9,30.18,NNW,347,1.0,1.0,56,0.00,,,0.00,772.00,VWS V14.01,2013-07-16 14:57:00,
2013-07-16 11:02:00,90.1,70.1,30.18,NW,304,3.0,5.0,52,0.00,,,0.00,763.00,VWS V14.01,2013-07-16 15:02:00,
2013-07-16 11:07:00,90.1,69.6,30.18,NW,321,0.0,1.0,51,0.00,,,0.00,745.00,VWS V14.01,2013-07-16 15:07:00,
2013-07-16 11:12:00,90.3,69.7,30.18,WNW,300,0.0,0.0,51,0.00,,,0.00,807.00,VWS V14.01,2013-07-16 15:12:00,
2013-07-16 11:17:00,90.7,70.1,30.18,NNW,341,0.0,0.0,51,0.00,,,0.00,779.00,VWS V14.01,2013-07-16 15:17:00,
2013-07-16 11:22:00,91.2,71.7,30.18,SW,219,0.0,3.0,53,0.00,,,0.00,772.00,VWS V14.01,2013-07-16 15:22:00,
2013-07-16 11:27:00,91.4,70.7,30.18,NNW,333,4.0,4.0,51,0.00,,,0.00,786.00,VWS V14.01,2013-07-16 15:27:00,
2013-07-16 11:32:00,91.2,71.1,30.18,WNW,296,0.0,3.0,52,0.00,,,0.00,809.00,VWS V14.01,2013-07-16 15:32:00,
2013-07-16 11:37:00,91.2,71.1,30.18,NNW,346,0.0,0.0,52,0.00,,,0.00,856.00,VWS V14.01,2013-07-16 15:37:00,
2013-07-16 11:42:00,91.4,72.4,30.18,North,349,0.0,0.0,54,0.00,,,0.00,795.00,VWS V14.01,2013-07-16 15:42:00,
2013-07-16 11:47:00,91.6,70.3,30.17,North,349,0.0,0.0,50,0.00,,,0.00,796.00,VWS V14.01,2013-07-16 15:47:00,
2013-07-16 11:52:00,92.3,70.4,30.17,North,349,0.0,0.0,49,0.00,,,0.00,810.00,VWS V14.01,2013-07-16 15:52:00,
2013-07-16 11:57:00,92.5,68.1,30.17,North,349,0.0,0.0,45,0.00,,,0.00,860.00,VWS V14.01,2013-07-16 15:57:00,
2013-07-16 12:02:00,92.7,69.5,30.17,West,271,0.0,0.0,47,0.00,,,0.00,828.00,VWS V14.01,2013-07-16 16:02:00,
2013-07-16 12:07:00,92.7,68.3,30.17,West,269,3.0,3.0,45,0.00,,,0.00,780.00,VWS V14.01,2013-07-16 16:07:00,
2013-07-16 12:12:00,92.7,69.5,30.17,SW,228,2.0,2.0,47,0.00,,,0.00,858.00,VWS V14.01,2013-07-16 16:12:00,
2013-07-16 12:17:00,92.5,68.7,30.17,WSW,238,0.0,5.0,46,0.00,,,0.00,898.00,VWS V14.01,2013-07-16 16:17:00,
2013-07-16 12:22:00,92.7,69.5,30.17,West,278,0.0,1.0,47,0.00,,,0.00,846.00,VWS V14.01,2013-07-16 16:22:00,
2013-07-16 12:27:00,92.9,69.1,30.17,North,0,0.0,0.0,46,0.00,,,0.00,896.00,VWS V14.01,2013-07-16 16:27:00,
2013-07-16 12:32:00,93.4,70.8,30.17,North,0,0.0,0.0,48,0.00,,,0.00,860.00,VWS V14.01,2013-07-16 16:32:00,
2013-07-16 12:37:00,93.8,69.9,30.17,SSW,207,0.0,0.0,46,0.00,,,0.00,882.00,VWS V14.01,2013-07-16 16:37:00,
2013-07-16 12:42:00,93.8,68.6,30.17,WNW,288,0.0,3.0,44,0.00,,,0.00,888.00,VWS V14.01,2013-07-16 16:42:00,
2013-07-16 12:47:00,93.6,68.4,30.16,NW,325,0.0,0.0,44,0.00,,,0.00,777.00,VWS V14.01,2013-07-16 16:47:00,
2013-07-16 12:52:00,93.6,67.8,30.16,WNW,300,0.0,0.0,43,0.00,,,0.00,858.00,VWS V14.01,2013-07-16 16:52:00,
2013-07-16 12:57:00,93.6,67.8,30.16,WNW,300,0.0,0.0,43,0.00,,,0.00,816.00,VWS V14.01,2013-07-16 16:57:00,
2013-07-16 13:02:00,94.0,68.8,30.16,WNW,299,4.0,4.0,44,0.00,,,0.00,872.00,VWS V14.01,2013-07-16 17:02:00,
2013-07-16 13:07:00,94.3,70.4,30.16,North,0,5.0,5.0,46,0.00,,,0.00,812.00,VWS V14.01,2013-07-16 17:07:00,
2013-07-16 13:12:00,94.3,71.0,30.16,North,358,0.0,0.0,47,0.00,,,0.00,928.00,VWS V14.01,2013-07-16 17:12:00,
2013-07-16 13:17:00,94.3,69.1,30.15,NW,304,1.0,2.0,44,0.00,,,0.00,974.00,VWS V14.01,2013-07-16 17:17:00,
2013-07-16 13:22:00,94.0,69.4,30.15,South,187,0.0,0.0,45,0.00,,,0.00,935.00,VWS V14.01,2013-07-16 17:22:00,
2013-07-16 13:27:00,94.3,71.0,30.15,SW,214,0.0,0.0,47,0.00,,,0.00,956.00,VWS V14.01,2013-07-16 17:27:00,
2013-07-16 13:32:00,94.5,69.9,30.15,WNW,288,0.0,1.0,45,0.00,,,0.00,963.00,VWS V14.01,2013-07-16 17:32:00,
2013-07-16 13:37:00,94.7,69.4,30.15,WNW,292,0.0,0.0,44,0.00,,,0.00,946.00,VWS V14.01,2013-07-16 17:37:00,
2013-07-16 13:42:00,94.9,70.2,30.15,WSW,255,4.0,6.0,45,0.00,,,0.00,956.00,VWS V14.01,2013-07-16 17:42:00,
2013-07-16 13:47:00,95.1,69.1,30.14,NNW,330,1.0,4.0,43,0.00,,,0.00,953.00,VWS V14.01,2013-07-16 17:47:00,
2013-07-16 13:52:00,94.9,70.9,30.14,NW,310,0.0,0.0,46,0.00,,,0.00,944.00,VWS V14.01,2013-07-16 17:52:00,
2013-07-16 13:57:00,94.9,70.9,30.14,South,183,0.0,2.0,46,0.00,,,0.00,942.00,VWS V14.01,2013-07-16 17:57:00,
2013-07-16 14:02:00,95.1,71.7,30.14,North,357,0.0,0.0,47,0.00,,,0.00,940.00,VWS V14.01,2013-07-16 18:02:00,
2013-07-16 14:07:00,95.6,70.2,30.14,North,353,5.0,5.0,44,0.00,,,0.00,942.00,VWS V14.01,2013-07-16 18:07:00,
2013-07-16 14:12:00,95.6,72.2,30.14,North,355,3.0,4.0,47,0.00,,,0.00,944.00,VWS V14.01,2013-07-16 18:12:00,
2013-07-16 14:17:00,95.6,70.2,30.13,North,352,0.0,0.0,44,0.00,,,0.00,935.00,VWS V14.01,2013-07-16 18:17:00,
2013-07-16 14:22:00,95.4,69.4,30.13,WSW,254,0.0,0.0,43,0.00,,,0.00,932.00,VWS V14.01,2013-07-16 18:22:00,
2013-07-16 14:27:00,95.6,70.2,30.13,NW,312,0.0,3.0,44,0.00,,,0.00,919.00,VWS V14.01,2013-07-16 18:27:00,
2013-07-16 14:32:00,95.6,71.5,30.13,West,262,0.0,0.0,46,0.00,,,0.00,916.00,VWS V14.01,2013-07-16 18:32:00,
2013-07-16 14:37:00,96.1,71.3,30.13,WNW,293,1.0,2.0,45,0.00,,,0.00,891.00,VWS V14.01,2013-07-16 18:37:00,
2013-07-16 14:42:00,96.1,71.3,30.13,North,0,0.0,3.0,45,0.00,,,0.00,895.00,VWS V14.01,2013-07-16 18:42:00,
2013-07-16 14:47:00,96.3,70.9,30.12,North,11,0.0,1.0,44,0.00,,,0.00,886.00,VWS V14.01,2013-07-16 18:47:00,
2013-07-16 14:52:00,96.3,72.2,30.12,NNE,25,0.0,0.0,46,0.00,,,0.00,909.00,VWS V14.01,2013-07-16 18:52:00,
2013-07-16 14:57:00,96.3,70.9,30.12,North,358,0.0,3.0,44,0.00,,,0.00,900.00,VWS V14.01,2013-07-16 18:57:00,
2013-07-16 15:02:00,96.3,70.2,30.12,WNW,287,0.0,2.0,43,0.00,,,0.00,884.00,VWS V14.01,2013-07-16 19:02:00,
2013-07-16 15:07:00,96.6,69.8,30.12,NW,325,5.0,6.0,42,0.00,,,0.00,874.00,VWS V14.01,2013-07-16 19:07:00,
2013-07-16 15:12:00,96.3,70.2,30.12,NNW,333,0.0,1.0,43,0.00,,,0.00,867.00,VWS V14.01,2013-07-16 19:12:00,
2013-07-16 15:17:00,96.3,70.2,30.12,NNW,335,2.0,2.0,43,0.00,,,0.00,863.00,VWS V14.01,2013-07-16 19:17:00,
2013-07-16 15:22:00,96.6,71.1,30.12,North,0,1.0,4.0,44,0.00,,,0.00,851.00,VWS V14.01,2013-07-16 19:22:00,
2013-07-16 15:27:00,96.6,69.8,30.12,NNW,335,0.0,2.0,42,0.00,,,0.00,844.00,VWS V14.01,2013-07-16 19:27:00,
2013-07-16 15:32:00,96.3,70.9,30.12,NNW,345,0.0,0.0,44,0.00,,,0.00,837.00,VWS V14.01,2013-07-16 19:32:00,
2013-07-16 15:37:00,96.3,69.5,30.12,NNW,346,0.0,0.0,42,0.00,,,0.00,854.00,VWS V14.01,2013-07-16 19:37:00,
2013-07-16 15:42:00,96.8,70.6,30.12,North,6,0.0,0.0,43,0.00,,,0.00,884.00,VWS V14.01,2013-07-16 19:42:00,
2013-07-16 15:47:00,97.3,71.8,30.12,North,0,2.0,2.0,44,0.00,,,0.00,838.00,VWS V14.01,2013-07-16 19:47:00,
2013-07-16 15:52:00,97.8,72.9,30.12,North,0,0.0,0.0,45,0.00,,,0.00,860.00,VWS V14.01,2013-07-16 19:52:00,
2013-07-16 15:57:00,97.8,70.8,30.12,North,0,0.0,1.0,42,0.00,,,0.00,807.00,VWS V14.01,2013-07-16 19:57:00,
2013-07-16 16:02:00,97.8,71.5,30.11,North,0,0.0,1.0,43,0.00,,,0.00,773.00,VWS V14.01,2013-07-16 20:02:00,
2013-07-16 16:07:00,98.2,71.2,30.11,NNW,347,1.0,1.0,42,0.00,,,0.00,802.00,VWS V14.01,2013-07-16 20:07:00,
2013-07-16 16:12:00,98.5,72.2,30.11,North,0,3.0,3.0,43,0.00,,,0.00,853.00,VWS V14.01,2013-07-16 20:12:00,
2013-07-16 16:17:00,98.2,71.9,30.10,WNW,296,0.0,2.0,43,0.00,,,0.00,271.00,VWS V14.01,2013-07-16 20:17:00,
2013-07-16 16:22:00,97.8,71.5,30.10,WNW,303,2.0,4.0,43,0.00,,,0.00,868.00,VWS V14.01,2013-07-16 20:22:00,
2013-07-16 16:27:00,97.8,70.1,30.10,West,281,0.0,0.0,41,0.00,,,0.00,877.00,VWS V14.01,2013-07-16 20:27:00,
2013-07-16 16:32:00,97.8,70.1,30.10,NNW,342,2.0,2.0,41,0.00,,,0.00,837.00,VWS V14.01,2013-07-16 20:32:00,
2013-07-16 16:37:00,98.0,71.7,30.10,WNW,300,0.0,0.0,43,0.00,,,0.00,779.00,VWS V14.01,2013-07-16 20:37:00,
2013-07-16 16:42:00,98.0,71.0,30.10,North,0,2.0,4.0,42,0.00,,,0.00,218.00,VWS V14.01,2013-07-16 20:42:00,
2013-07-16 16:47:00,97.5,70.6,30.10,North,356,0.0,0.0,42,0.00,,,0.00,701.00,VWS V14.01,2013-07-16 20:47:00,
2013-07-16 16:52:00,97.5,71.9,30.10,NE,56,2.0,3.0,44,0.00,,,0.00,735.00,VWS V14.01,2013-07-16 20:52:00,
2013-07-16 16:57:00,97.3,73.1,30.10,NE,38,1.0,1.0,46,0.00,,,0.00,211.00,VWS V14.01,2013-07-16 20:57:00,
2013-07-16 17:02:00,97.1,72.9,30.10,NE,39,0.0,0.0,46,0.00,,,0.00,686.00,VWS V14.01,2013-07-16 21:02:00,
2013-07-16 17:07:00,97.1,72.2,30.10,NE,39,0.0,0.0,45,0.00,,,0.00,236.00,VWS V14.01,2013-07-16 21:07:00,
2013-07-16 17:12:00,96.6,71.1,30.10,NE,39,0.0,1.0,44,0.00,,,0.00,186.00,VWS V14.01,2013-07-16 21:12:00,
2013-07-16 17:17:00,96.3,70.9,30.09,NE,41,0.0,1.0,44,0.00,,,0.00,134.00,VWS V14.01,2013-07-16 21:17:00,
2013-07-16 17:22:00,95.9,71.8,30.09,NE,41,0.0,0.0,46,0.00,,,0.00,121.00,VWS V14.01,2013-07-16 21:22:00,
2013-07-16 17:27:00,95.1,74.1,30.09,NE,41,0.0,0.0,51,0.00,,,0.00,104.00,VWS V14.01,2013-07-16 21:27:00,
2013-07-16 17:32:00,94.5,74.7,30.09,East,84,0.0,1.0,53,0.00,,,0.00,139.00,VWS V14.01,2013-07-16 21:32:00,
2013-07-16 17:37:00,93.8,75.2,30.09,East,84,0.0,0.0,55,0.00,,,0.00,167.00,VWS V14.01,2013-07-16 21:37:00,
2013-07-16 17:42:00,93.4,76.4,30.09,East,84,0.0,0.0,58,0.00,,,0.00,446.00,VWS V14.01,2013-07-16 21:42:00,
2013-07-16 17:47:00,93.4,76.9,30.09,East,84,0.0,0.0,59,0.00,,,0.00,220.00,VWS V14.01,2013-07-16 21:47:00,
2013-07-16 17:52:00,93.4,74.3,30.09,East,84,0.0,0.0,54,0.00,,,0.00,121.00,VWS V14.01,2013-07-16 21:52:00,
2013-07-16 17:57:00,93.2,76.8,30.09,East,84,0.0,0.0,59,0.00,,,0.00,86.00,VWS V14.01,2013-07-16 21:57:00,
2013-07-16 18:02:00,92.7,76.3,30.09,East,84,0.0,0.0,59,0.00,,,0.00,69.00,VWS V14.01,2013-07-16 22:02:00,
2013-07-16 18:07:00,92.3,75.4,30.09,East,84,0.0,0.0,58,0.00,,,0.00,58.00,VWS V14.01,2013-07-16 22:07:00,
2013-07-16 18:12:00,91.6,77.2,30.09,East,84,0.0,0.0,63,0.00,,,0.00,49.00,VWS V14.01,2013-07-16 22:12:00,
2013-07-16 18:17:00,91.0,78.5,30.10,East,84,0.0,0.0,67,0.00,,,0.00,44.00,VWS V14.01,2013-07-16 22:17:00,
2013-07-16 18:22:00,90.1,79.0,30.10,East,84,0.0,0.0,70,0.01,,,0.01,39.00,VWS V14.01,2013-07-16 22:22:00,
2013-07-16 18:27:00,88.8,78.2,30.10,East,84,2.0,2.0,71,0.02,,,0.02,42.00,VWS V14.01,2013-07-16 22:27:00,
2013-07-16 18:32:00,88.0,78.7,30.09,ENE,77,3.0,4.0,74,0.02,,,0.02,47.00,VWS V14.01,2013-07-16 22:32:00,
2013-07-16 18:37:00,87.2,77.5,30.09,ENE,77,0.0,0.0,73,0.02,,,0.02,53.00,VWS V14.01,2013-07-16 22:37:00,
2013-07-16 18:42:00,87.0,78.9,30.09,ENE,77,0.0,0.0,77,0.02,,,0.02,63.00,VWS V14.01,2013-07-16 22:42:00,
2013-07-16 18:47:00,86.5,79.2,30.09,ENE,77,0.0,0.0,79,0.02,,,0.02,74.00,VWS V14.01,2013-07-16 22:47:00,
2013-07-16 18:52:00,85.9,79.0,30.09,ENE,77,0.0,0.0,80,0.02,,,0.02,88.00,VWS V14.01,2013-07-16 22:52:00,
2013-07-16 18:57:00,85.5,79.0,30.09,ENE,77,0.0,0.0,81,0.02,,,0.02,118.00,VWS V14.01,2013-07-16 22:57:00,
2013-07-16 19:02:00,85.1,79.0,30.09,ENE,77,0.0,0.0,82,0.02,,,0.02,123.00,VWS V14.01,2013-07-16 23:02:00,
2013-07-16 19:07:00,85.3,79.6,30.09,ENE,77,0.0,0.0,83,0.02,,,0.02,125.00,VWS V14.01,2013-07-16 23:07:00,
2013-07-16 19:12:00,85.3,79.9,30.09,ENE,77,0.0,0.0,84,0.02,,,0.02,113.00,VWS V14.01,2013-07-16 23:12:00,
2013-07-16 19:17:00,85.5,80.1,30.09,ENE,77,0.0,0.0,84,0.02,,,0.02,105.00,VWS V14.01,2013-07-16 23:17:00,
2013-07-16 19:22:00,85.5,80.1,30.09,ENE,77,0.0,0.0,84,0.01,,,0.02,107.00,VWS V14.01,2013-07-16 23:22:00,
2013-07-16 19:27:00,85.7,80.3,30.09,ENE,77,0.0,0.0,84,0.00,,,0.02,98.00,VWS V14.01,2013-07-16 23:27:00,
2013-07-16 19:32:00,85.5,79.4,30.11,ENE,77,0.0,0.0,82,0.00,,,0.02,97.00,VWS V14.01,2013-07-16 23:32:00,
2013-07-16 19:37:00,85.7,79.9,30.11,ENE,77,0.0,0.0,83,0.00,,,0.02,83.00,VWS V14.01,2013-07-16 23:37:00,
2013-07-16 19:42:00,85.7,79.6,30.11,ENE,77,0.0,0.0,82,0.00,,,0.02,74.00,VWS V14.01,2013-07-16 23:42:00,
2013-07-16 19:47:00,85.7,79.2,30.11,ENE,77,0.0,0.0,81,0.00,,,0.02,56.00,VWS V14.01,2013-07-16 23:47:00,
2013-07-16 19:52:00,85.9,79.8,30.11,ENE,77,0.0,0.0,82,0.00,,,0.02,46.00,VWS V14.01,2013-07-16 23:52:00,
2013-07-16 19:57:00,85.7,79.6,30.11,ENE,77,0.0,0.0,82,0.00,,,0.02,37.00,VWS V14.01,2013-07-16 23:57:00,
2013-07-16 20:02:00,85.7,79.6,30.10,ENE,77,0.0,0.0,82,0.00,,,0.02,28.00,VWS V14.01,2013-07-17 00:02:00,
2013-07-16 20:07:00,85.5,79.4,30.10,ENE,77,0.0,0.0,82,0.00,,,0.02,21.00,VWS V14.01,2013-07-17 00:07:00,
2013-07-16 20:12:00,85.3,79.2,30.10,ENE,77,0.0,0.0,82,0.00,,,0.02,14.00,VWS V14.01,2013-07-17 00:12:00,
2013-07-16 20:17:00,85.1,79.4,30.10,ENE,77,0.0,0.0,83,0.00,,,0.02,9.00,VWS V14.01,2013-07-17 00:17:00,
2013-07-16 20:22:00,84.9,79.5,30.10,ENE,77,0.0,0.0,84,0.00,,,0.02,5.00,VWS V14.01,2013-07-17 00:22:00,
2013-07-16 20:27:00,84.7,79.3,30.10,ENE,77,0.0,0.0,84,0.00,,,0.02,0.00,VWS V14.01,2013-07-17 00:27:00,
2013-07-16 20:32:00,84.5,79.1,30.12,ENE,77,0.0,0.0,84,0.00,,,0.02,0.00,VWS V14.01,2013-07-17 00:32:00,
2013-07-16 20:37:00,84.3,78.9,30.12,ENE,77,0.0,0.0,84,0.00,,,0.02,0.00,VWS V14.01,2013-07-17 00:37:00,
2013-07-16 20:42:00,84.1,78.8,30.12,ENE,77,0.0,0.0,84,0.00,,,0.02,0.00,VWS V14.01,2013-07-17 00:42:00,
2013-07-16 20:47:00,84.0,79.0,30.11,ENE,77,0.0,0.0,85,0.00,,,0.02,0.00,VWS V14.01,2013-07-17 00:47:00,
2013-07-16 20:52:00,83.6,78.6,30.11,ENE,77,0.0,0.0,85,0.00,,,0.02,0.00,VWS V14.01,2013-07-17 00:52:00,
2013-07-16 20:56:00,83.2,78.6,30.11,West,279,2.0,3.0,86,0.00,,,0.02,0.00,VWS V14.01,2013-07-17 00:56:00,
2013-07-16 21:02:00,82.8,78.2,30.11,West,279,1.0,1.0,86,0.00,,,0.02,0.00,VWS V14.01,2013-07-17 01:02:00,
2013-07-16 21:06:00,82.6,76.9,30.11,West,279,1.0,4.0,83,0.00,,,0.02,0.00,VWS V14.01,2013-07-17 01:06:00,
2013-07-16 21:12:00,82.4,76.4,30.11,WSW,244,0.0,0.0,82,0.00,,,0.02,0.00,VWS V14.01,2013-07-17 01:12:00,
2013-07-16 21:17:00,82.2,75.4,30.11,WSW,244,0.0,0.0,80,0.00,,,0.02,0.00,VWS V14.01,2013-07-17 01:17:00,
2013-07-16 21:22:00,82.0,74.8,30.11,WNW,297,3.0,5.0,79,0.00,,,0.02,0.00,VWS V14.01,2013-07-17 01:22:00,
2013-07-16 21:27:00,81.8,74.3,30.11,SW,236,0.0,0.0,78,0.00,,,0.02,0.00,VWS V14.01,2013-07-17 01:27:00,
2013-07-16 21:31:00,81.8,75.0,30.12,SW,236,0.0,0.0,80,0.00,,,0.02,0.00,VWS V14.01,2013-07-17 01:31:00,
2013-07-16 21:36:00,81.8,75.8,30.12,SW,236,0.0,0.0,82,0.00,,,0.02,0.00,VWS V14.01,2013-07-17 01:36:00,
2013-07-16 21:41:00,81.8,76.1,30.12,SW,236,0.0,0.0,83,0.00,,,0.02,0.00,VWS V14.01,2013-07-17 01:41:00,
2013-07-16 21:47:00,81.6,75.9,30.12,SW,236,0.0,0.0,83,0.00,,,0.02,0.00,VWS V14.01,2013-07-17 01:47:00,
2013-07-16 21:52:00,81.4,75.7,30.12,SW,236,0.0,0.0,83,0.00,,,0.02,0.00,VWS V14.01,2013-07-17 01:52:00,
2013-07-16 21:57:00,81.2,75.6,30.12,SW,236,0.0,0.0,83,0.00,,,0.02,0.00,VWS V14.01,2013-07-17 01:57:00,
2013-07-16 22:02:00,81.1,75.4,30.12,SW,236,0.0,0.0,83,0.00,,,0.02,0.00,VWS V14.01,2013-07-17 02:02:00,
2013-07-16 22:06:00,81.1,75.8,30.12,SW,236,0.0,0.0,84,0.00,,,0.02,0.00,VWS V14.01,2013-07-17 02:06:00,
2013-07-16 22:11:00,81.1,76.2,30.12,SW,236,0.0,0.0,85,0.00,,,0.02,0.00,VWS V14.01,2013-07-17 02:11:00,
2013-07-16 22:16:00,81.1,76.5,30.12,SW,236,0.0,0.0,86,0.00,,,0.02,0.00,VWS V14.01,2013-07-17 02:16:00,
2013-07-16 22:21:00,81.1,76.5,30.12,SW,236,0.0,0.0,86,0.00,,,0.02,0.00,VWS V14.01,2013-07-17 02:21:00,
2013-07-16 22:26:00,81.1,76.9,30.12,SW,236,0.0,0.0,87,0.00,,,0.02,0.00,VWS V14.01,2013-07-17 02:26:00,
2013-07-16 22:31:00,81.1,76.9,30.12,SW,236,0.0,0.0,87,0.00,,,0.02,0.00,VWS V14.01,2013-07-17 02:31:00,
2013-07-16 22:36:00,80.9,76.7,30.12,SW,236,0.0,0.0,87,0.00,,,0.02,0.00,VWS V14.01,2013-07-17 02:36:00,
2013-07-16 22:41:00,80.9,76.7,30.12,SW,236,0.0,0.0,87,0.00,,,0.02,0.00,VWS V14.01,2013-07-17 02:41:00,
2013-07-16 22:46:00,80.9,77.0,30.12,SW,236,0.0,0.0,88,0.00,,,0.02,0.00,VWS V14.01,2013-07-17 02:46:00,
2013-07-16 22:51:00,80.7,76.5,30.12,SW,236,0.0,0.0,87,0.00,,,0.02,0.00,VWS V14.01,2013-07-17 02:51:00,
2013-07-16 22:56:00,80.5,76.3,30.12,SW,236,0.0,0.0,87,0.00,,,0.02,0.00,VWS V14.01,2013-07-17 02:56:00,
2013-07-16 23:01:00,80.3,76.1,30.12,SW,236,0.0,0.0,87,0.00,,,0.02,0.00,VWS V14.01,2013-07-17 03:01:00,
2013-07-16 23:06:00,80.1,75.9,30.12,SW,236,0.0,0.0,87,0.00,,,0.02,0.00,VWS V14.01,2013-07-17 03:06:00,
2013-07-16 23:11:00,79.9,75.7,30.12,SW,236,0.0,0.0,87,0.00,,,0.02,0.00,VWS V14.01,2013-07-17 03:11:00,
2013-07-16 23:16:00,79.8,75.6,30.12,SW,236,0.0,0.0,87,0.00,,,0.02,0.00,VWS V14.01,2013-07-17 03:16:00,
2013-07-16 23:21:00,79.6,75.4,30.12,SW,236,0.0,0.0,87,0.00,,,0.02,0.00,VWS V14.01,2013-07-17 03:21:00,
2013-07-16 23:26:00,79.6,75.7,30.12,SW,236,0.0,0.0,88,0.00,,,0.02,0.00,VWS V14.01,2013-07-17 03:26:00,
2013-07-16 23:31:00,79.6,75.7,30.12,SW,236,0.0,0.0,88,0.00,,,0.02,0.00,VWS V14.01,2013-07-17 03:31:00,
2013-07-16 23:36:00,79.6,76.1,30.12,SW,236,0.0,0.0,89,0.00,,,0.02,0.00,VWS V14.01,2013-07-17 03:36:00,
2013-07-16 23:41:00,79.6,76.1,30.12,SW,236,0.0,0.0,89,0.00,,,0.02,0.00,VWS V14.01,2013-07-17 03:41:00,
2013-07-16 23:46:00,79.6,76.4,30.11,SW,236,0.0,0.0,90,0.00,,,0.02,0.00,VWS V14.01,2013-07-17 03:46:00,
2013-07-16 23:51:00,79.4,76.2,30.11,SW,236,0.0,0.0,90,0.00,,,0.02,0.00,VWS V14.01,2013-07-17 03:51:00,
2013-07-16 23:56:00,79.4,76.2,30.11,SW,236,0.0,0.0,90,0.00,,,0.02,0.00,VWS V14.01,2013-07-17 03:56:00,